This is the latest recevied weather packets stored in our database for station/object KK4EQF-12. If no packets are shown the sender has not sent any weather packets the latest 1 day(s).
| Time | Temp. | Humidity | Pressure | Rain* | Wind** | Luminosity | Snow |
|---|---|---|---|---|---|---|---|
| 1778090447 | 27.22° C | 100% | 1013.8 hPa | 0 mm | - | - | - |
| 1778089546 | 27.22° C | 100% | 1014 hPa | 0 mm | - | - | - |
| 1778088645 | 27.22° C | 100% | 1013.9 hPa | 0 mm | - | - | - |
| 1778088345 | 27.22° C | 100% | 1013.9 hPa | 0 mm | - | - | - |
| 1778087444 | 27.78° C | 100% | 1014.1 hPa | 0 mm | - | - | - |
| 1778086543 | 28.33° C | 100% | 1014.2 hPa | 0 mm | - | - | - |
| 1778086243 | 27.78° C | 100% | 1014.3 hPa | 0 mm | - | - | - |
| 1778085342 | 27.22° C | 100% | 1014.3 hPa | 0 mm | - | - | - |
| 1778083240 | 27.78° C | 100% | 1014.3 hPa | 0 mm | - | - | - |
| 1778082339 | 28.33° C | 2% | 1014.2 hPa | 0 mm | - | - | - |
| 1778081438 | 28.33° C | 100% | 1014.2 hPa | 0 mm | - | - | - |
| 1778081138 | 27.78° C | 2% | 1014.2 hPa | 0 mm | - | - | - |
| 1778080237 | 27.78° C | 100% | 1014.2 hPa | 0 mm | - | - | - |
| 1778079036 | 27.22° C | 100% | 1014.1 hPa | 0 mm | - | - | - |
| 1778078135 | 27.22° C | 100% | 1014.1 hPa | 0 mm | - | - | - |
| 1778077534 | 27.22° C | 100% | 1014.1 hPa | 0 mm | - | - | - |
| 1778077234 | 26.67° C | 100% | 1014.1 hPa | 0 mm | - | - | - |
| 1778076934 | 26.67° C | 100% | 1014.1 hPa | 0 mm | - | - | - |
| 1778076333 | 26.11° C | 100% | 1013.9 hPa | 0 mm | - | - | - |
| 1778076033 | 26.67° C | 100% | 1013.9 hPa | 0 mm | - | - | - |
| 1778073931 | 25.56° C | 100% | 1013.8 hPa | 0 mm | - | - | - |
| 1778073030 | 25° C | 100% | 1013.7 hPa | 0 mm | - | - | - |
| 1778071829 | 24.44° C | 100% | 1013.7 hPa | 0 mm | - | - | - |
| 1778070928 | 23.89° C | 100% | 1013.6 hPa | 0 mm | - | - | - |
| 1778069727 | 23.33° C | 100% | 1013.5 hPa | 0 mm | - | - | - |
* Rain latest hour (hover to see other rain measurements)
** Current wind speed in m/s (hover to see current wind gust speed)